This is the latest recevied weather packets stored in our database for station/object KC1OEK-13. If no packets are shown the sender has not sent any weather packets the latest 10 day(s).
| Time | Temp. | Humidity | Pressure | Rain* | Wind** | Luminosity | Snow |
|---|---|---|---|---|---|---|---|
| 1787575101 | 16.11° C | 99% | 1015.9 hPa | 0 mm | - | 280 W/m² | - |
| 1787574800 | 16.11° C | 99% | 1015.9 hPa | 0 mm | - | 260 W/m² | - |
| 1787574495 | 15.56° C | 99% | 1015.9 hPa | 0 mm | - | 196 W/m² | - |
| 1787574194 | 15.56° C | 99% | 1015.9 hPa | 0 mm | - | 144 W/m² | - |
| 1787573889 | 15° C | 99% | 1016 hPa | 0 mm | - | 116 W/m² | - |
| 1787573588 | 15° C | 99% | 1015.8 hPa | 0 mm | - | 102 W/m² | - |
| 1787573285 | 15° C | 99% | 1015.8 hPa | 0 mm | - | 92 W/m² | - |
| 1787572980 | 14.44° C | 99% | 1016.1 hPa | 0 mm | - | 83 W/m² | - |
| 1787572677 | 14.44° C | 99% | 1015.8 hPa | 0 mm | - | 78 W/m² | - |
| 1787572376 | 14.44° C | 99% | 1015.7 hPa | 0 mm | - | 72 W/m² | - |
| 1787572071 | 14.44° C | 99% | 1015.8 hPa | 0 mm | - | 81 W/m² | - |
| 1787571770 | 13.89° C | 99% | 1015.9 hPa | 0 mm | - | 82 W/m² | - |
| 1787571464 | 13.89° C | 99% | 1015.9 hPa | 0 mm | - | 71 W/m² | - |
| 1787571159 | 13.89° C | 99% | 1015.8 hPa | 0 mm | - | 67 W/m² | - |
| 1787570855 | 13.33° C | 99% | 1015.7 hPa | 0 mm | - | 59 W/m² | - |
| 1787570551 | 13.33° C | 99% | 1015.7 hPa | 0 mm | - | 53 W/m² | - |
| 1787570247 | 13.33° C | 99% | 1015.6 hPa | 0 mm | - | 54 W/m² | - |
| 1787569943 | 13.33° C | 99% | 1015.8 hPa | 0 mm | - | 50 W/m² | - |
| 1787569638 | 13.33° C | 99% | 1015.7 hPa | 0 mm | - | 40 W/m² | - |
| 1787569328 | 13.33° C | 99% | 1015.7 hPa | 0 mm | - | 33 W/m² | - |
| 1787569027 | 13.33° C | 99% | 1015.8 hPa | 0 mm | - | 30 W/m² | - |
| 1787568722 | 12.78° C | 99% | 1015.6 hPa | 0 mm | - | 27 W/m² | - |
| 1787568418 | 12.78° C | 99% | 1015.5 hPa | 0 mm | - | 24 W/m² | - |
| 1787568114 | 12.78° C | 99% | 1015.6 hPa | 0 mm | - | 21 W/m² | - |
| 1787567809 | 12.78° C | 99% | 1015.6 hPa | 0 mm | - | 18 W/m² | - |
* Rain latest hour (hover to see other rain measurements)
** Current wind speed in m/s (hover to see current wind gust speed)